This demonstration page uses our WeatherBlox Daily Observations layout. Learn more.

Left ArrowRight Arrow

39.01783, -85.05884

Hourly Observations for February 15, 2017

Temp ( °F °C ) Dew Point ( °F °C ) Humidity (%) Winds ( mph kmh ) Pressure ( in mb ) Visibility ( mi km ) Precip ( " mm )
12:52 am 00:52 Cloudy 43 6.1 33 0.6 68 68 WSW 8 13 29.70 1006 10 16 0.00 0.00
1:52 am 01:52 Cloudy 42 5.6 33 0.6 71 71 WSW 8 13 29.67 1005 10 16 0.00 0.00
2:52 am 02:52 Cloudy 40 4.4 32 0 73 73 WNW 10 17 29.69 1005 10 16 0.00 0.00
3:52 am 03:52 Cloudy 40 4.4 29 -1.7 65 65 NW 13 20 29.69 1006 10 16 0.00 0.00
4:52 am 04:52 Cloudy 39 3.9 29 -1.7 67 67 NW 18 30 29.69 1005 10 16 0.00 0.00
5:52 am 05:52 Cloudy 38 3.3 29 -1.7 70 70 NNW 15 24 29.70 1006 10 16 0.00 0.00
6:16 am 06:16 Cloudy 37 3 28 -2 70 70 NNW 13 20 29.74 1007 10 16 0.00 0.00
6:44 am 06:44 Cloudy 36 2 28 -2 75 75 N 14 22 29.74 1007 10 16 0.00 0.00
6:52 am 06:52 Cloudy 36 2.2 28 -2.2 73 73 N 12 19 29.73 1007 10 16 0.00 0.00
7:52 am 07:52 Mostly Cloudy 35 1.7 23 -5 61 61 N 12 19 29.76 1008 10 16 0.00 0.00
8:52 am 08:52 Mostly Sunny 35 1.7 20 -6.7 54 54 NNW 14 22 29.78 1009 10 16 0.00 0.00
9:52 am 09:52 Mostly Sunny 36 2.2 16 -8.9 44 44 NNW 21 33 29.80 1009 10 16 0.00 0.00
10:52 am 10:52 Mostly Sunny 37 2.8 17 -8.3 44 44 NNW 18 30 29.82 1010 10 16 0.00 0.00
11:52 am 11:52 Mostly Sunny 40 4.4 19 -7.2 43 43 NW 14 22 29.83 1010 10 16 0.00 0.00
12:52 pm 12:52 Mostly Sunny 40 4.4 18 -7.8 41 41 NNW 15 24 29.82 1010 10 16 0.00 0.00
1:52 pm 13:52 Partly Cloudy 42 5.6 20 -6.7 41 41 WNW 21 33 29.81 1009 10 16 0.00 0.00
2:52 pm 14:52 Mostly Cloudy 43 6.1 21 -6.1 42 42 WNW 21 33 29.80 1009 10 16 0.00 0.00
3:52 pm 15:52 Mostly Cloudy 43 6.1 18 -7.8 37 37 WNW 21 33 29.81 1010 10 16 0.00 0.00
4:52 pm 16:52 Mostly Cloudy 41 5 18 -7.8 39 39 WNW 15 24 29.82 1010 10 16 0.00 0.00
5:52 pm 17:52 Mostly Cloudy 39 3.9 15 -9.4 38 38 WNW 16 26 29.83 1010 10 16 0.00 0.00
6:52 pm 18:52 Clear 38 3.3 15 -9.4 39 39 WNW 16 26 29.85 1011 10 16 0.00 0.00
7:52 pm 19:52 Clear 36 2.2 18 -7.8 48 48 NW 13 20 29.88 1012 10 16 0.00 0.00
8:52 pm 20:52 Clear 35 1.7 19 -7.2 52 52 NW 10 17 29.90 1012 10 16 0.00 0.00
9:52 pm 21:52 Mostly Clear 33 0.6 18 -7.8 54 54 NNW 9 15 29.91 1013 10 16 0.00 0.00
10:52 pm 22:52 Mostly Clear 31 -0.6 18 -7.8 59 59 NNW 7 11 29.92 1013 10 16 0.00 0.00
11:52 pm 23:52 Mostly Clear 29 -1.7 19 -7.2 66 66 NW 8 13 29.91 1013 10 16 0.00 0.00

Powered by AerisWeather